Weather History for KMIA - January, 2014

Change the Weather History Date:

Wednesday, January 1, 2014

  Actual Average Record
Temperature  
Mean Temperature 78 °F 68 °F  
Max Temperature 82 °F 77 °F 87 °F (1982)
Min Temperature 73 °F 60 °F 36 °F (1918)
Degree Days  
Heating Degree Days 0 2  
Month to date heating degree days 0 2  
Since 1 July heating degree days 2 39  
Cooling Degree Days 13 5  
Month to date cooling degree days 13 5  
Year to date cooling degree days 13 5  
Growing Degree Days 28 (Base 50)    
Moisture  
Dew Point 70 °F    
Average Humidity 81    
Maximum Humidity 93    
Minimum Humidity 69    
Precipitation  
Precipitation 0.08 in 0.05 in 1.87 in (1931)
Month to date precipitation 0.08 0.05  
Year to date precipitation 0.08 0.05  
Snow  
Snow 0.00 in - - ()
Month to date snowfall 0.0  
Since 1 July snowfall 0.0  
Snow Depth 0.00 in    
Sea Level Pressure  
Sea Level Pressure 30.13 in    
Wind  
Wind Speed 10 mph (ESE)    
Max Wind Speed 18 mph    
Max Gust Speed 26 mph    
Visibility 10 miles    
Events Rain    
T = Trace of Precipitation, MM = Missing Value Source: NWS Daily Summary

Daily Weather History Graph

Daily Weather History Graph

Search for Another Location

Airport or City:

Trip Planner

Search our weather history database for the weather conditions in past years. The results will help you decide how hot, cold, wet, or windy it might be!

Date:

Astronomy

Jan. 01, 2014 Rise Set
Actual Time 7:08 AM EST 5:41 PM EST
Civil Twilight 6:42 AM EST 6:07 PM EST
Nautical Twilight 6:14 AM EST 6:35 PM EST
Astronomical Twilight 5:46 AM EST 7:03 PM EST
Moon 7:03 AM EST (1/1) 6:17 PM EST (1/1)
Length of Visible Light 11h 24m
Length of Day
10h 33m
New Moon, 0% of the Moon is Illuminated
Jan 1
New Moon
Jan 7
First Quarter
Jan 15
Full
Jan 24
Last Quarter
Jan 30
New

Hourly Weather History & Observations

Time (EST) Temp. Heat Index Dew Point Humidity Pressure Visibility Wind Dir Wind Speed Gust Speed Precip Events Conditions
12:53 AM 73.9 °F - 66.0 °F 76% 30.18 in 8.0 mi ENE 10.4 mph - 0.00 in Rain Light Rain
1:53 AM 75.0 °F - 66.9 °F 76% 30.17 in 10.0 mi ENE 11.5 mph - 0.00 in   Overcast
2:53 AM 75.0 °F - 68.0 °F 79% 30.15 in 10.0 mi ENE 9.2 mph - 0.00 in   Overcast
3:53 AM 75.0 °F - 69.1 °F 82% 30.14 in 9.0 mi East 11.5 mph - 0.00 in Rain Light Rain
4:53 AM 75.0 °F - 68.0 °F 79% 30.14 in 9.0 mi East 13.8 mph - N/A   Overcast
5:53 AM 75.0 °F - 69.1 °F 82% 30.14 in 9.0 mi East 9.2 mph - N/A   Overcast
6:53 AM 75.9 °F - 69.1 °F 79% 30.16 in 9.0 mi East 9.2 mph - N/A   Mostly Cloudy
7:47 AM 75.2 °F - 69.8 °F 83% 30.17 in 10.0 mi East 10.4 mph - 0.00 in   Mostly Cloudy
7:53 AM 75.0 °F - 70.0 °F 84% 30.18 in 10.0 mi East 10.4 mph - 0.00 in   Mostly Cloudy
8:53 AM 77.0 °F - 70.0 °F 79% 30.19 in 10.0 mi East 12.7 mph - N/A   Scattered Clouds
9:53 AM 79.0 °F - 71.1 °F 77% 30.19 in 10.0 mi East 10.4 mph - 0.00 in   Mostly Cloudy
10:20 AM 78.8 °F - 69.8 °F 74% 30.19 in 10.0 mi East 12.7 mph - N/A   Mostly Cloudy
10:53 AM 80.1 °F 83.8 °F 72.0 °F 76% 30.18 in 10.0 mi East 15.0 mph - 0.08 in   Mostly Cloudy
11:53 AM 81.0 °F 85.2 °F 72.0 °F 74% 30.16 in 10.0 mi ESE 11.5 mph - N/A   Mostly Cloudy
12:49 PM 80.6 °F 83.9 °F 69.8 °F 70% 30.13 in 10.0 mi ESE 13.8 mph 19.6 mph N/A   Mostly Cloudy
12:53 PM 81.0 °F 84.4 °F 70.0 °F 69% 30.13 in 10.0 mi ESE 13.8 mph 19.6 mph N/A   Mostly Cloudy
1:53 PM 82.0 °F 86.3 °F 71.1 °F 69% 30.09 in 10.0 mi SE 11.5 mph 23.0 mph N/A   Mostly Cloudy
2:53 PM 81.0 °F 84.9 °F 71.1 °F 72% 30.08 in 10.0 mi SE 15.0 mph 20.7 mph N/A   Mostly Cloudy
3:53 PM 80.1 °F 83.2 °F 70.0 °F 71% 30.08 in 10.0 mi SE 9.2 mph - N/A   Mostly Cloudy
4:53 PM 79.0 °F - 70.0 °F 74% 30.08 in 10.0 mi SE 10.4 mph - N/A   Mostly Cloudy
5:53 PM 77.0 °F - 70.0 °F 79% 30.07 in 10.0 mi SE 9.2 mph - N/A   Scattered Clouds
6:53 PM 77.0 °F - 71.1 °F 82% 30.09 in 10.0 mi ESE 6.9 mph - N/A   Scattered Clouds
7:53 PM 75.9 °F - 72.0 °F 87% 30.09 in 10.0 mi ESE 6.9 mph - N/A   Scattered Clouds
8:53 PM 75.0 °F - 71.1 °F 87% 30.09 in 10.0 mi ESE 6.9 mph - N/A   Partly Cloudy
9:53 PM 75.9 °F - 72.0 °F 87% 30.09 in 10.0 mi ESE 6.9 mph - N/A   Scattered Clouds
10:53 PM 73.9 °F - 71.1 °F 91% 30.08 in 10.0 mi SE 4.6 mph - N/A   Partly Cloudy
11:53 PM 75.0 °F - 70.0 °F 84% 30.06 in 10.0 mi SSE 4.6 mph - N/A   Partly Cloudy